Torna al catalogo

NOAA 16 DEB

AttivoSSO
NORAD 41211·DEBRIS·🇺🇸 United States

Lanciato Sep 21, 2000 da Vandenberg Space Force Base

Loading…

Prossimi Passaggi (prossime 24 ore)

TLE

AggiornatoSource: Space-Track

Epoca: Sep 14, 2026, 08:44 UTC

1 41211U 00055DQ  26257.36393734  .00001653  00000-0  76995-3 0  9993
2 41211  98.6713 305.6949 0025294 209.7754 150.1985 14.21691437554985

Traccia NOAA 16 DEB in tempo reale con AllMySat

Download on the App Store